Weather History for Honolulu, HI

Change the Weather History Date:

Monday, November 8, 2010

  Actual Average Record
Temperature  
Mean Temperature 80 °F 78 °F  
Max Temperature 85 °F 85 °F 90 °F (1968)
Min Temperature 75 °F 72 °F 64 °F (1935)
Degree Days  
Heating Degree Days 0 0  
Month to date heating degree days 0 0  
Since 1 July heating degree days 0 0  
Cooling Degree Days 15 13  
Month to date cooling degree days 107 110  
Year to date cooling degree days 4077 4056  
Growing Degree Days 30 (Base 50)    
Moisture  
Dew Point 64 °F    
Average Humidity 60    
Maximum Humidity 69    
Minimum Humidity 51    
Precipitation  
Precipitation T in 0.09 in 1.35 in (1920)
Month to date precipitation 0.12 0.68  
Year to date precipitation 5.26 12.12  
Snow  
Snow 0.00 in - - ()
Month to date snowfall 0.0  
Since 1 July snowfall 0.0  
Since 1 September snowfall 0.0  
Snow Depth 0.00 in    
Sea Level Pressure  
Sea Level Pressure 30.08 in    
Wind  
Wind Speed 13 mph (ENE)    
Max Wind Speed 22 mph    
Max Gust Speed 29 mph    
Visibility 10 miles    
Events      
T = Trace of Precipitation, MM = Missing Value Source: NWS Daily Summary

Daily Weather History Graph

Daily Weather History Graph

Search for Another Location

Airport:

Trip Planner

Search our weather history database for the weather conditions in past years. The results will help you decide how hot, cold, wet, or windy it might be!

Date:

Astronomy

Nov. 08, 2010 Rise Set
Actual Time 6:38 AM HST 5:52 PM HST
Civil Twilight 6:15 AM HST 6:15 PM HST
Nautical Twilight 5:48 AM HST 6:41 PM HST
Astronomical Twilight 5:22 AM HST 7:08 PM HST
Moon 9:16 AM HST (11/8) 8:19 PM HST (11/8)
Length of Visible Light 11h 59m
Length of Day
11h 13m
Waxing Crescent, 9% of the Moon is Illuminated
Nov 8
Waxing Crescent
Nov 13
First Quarter
Nov 21
Full
Nov 28
Last Quarter
Dec 5
New

Hourly Weather History & Observations

Time (HST) Temp. Heat Index Dew Point Humidity Pressure Visibility Wind Dir Wind Speed Gust Speed Precip Events Conditions
12:53 AM 77.0 °F - 62.1 °F 60% 30.11 in 10.0 mi NE 12.7 mph - N/A   Partly Cloudy
1:53 AM 75.9 °F - 63.0 °F 64% 30.10 in 10.0 mi ENE 10.4 mph - N/A   Partly Cloudy
2:53 AM 75.9 °F - 62.1 °F 62% 30.09 in 10.0 mi East 10.4 mph - N/A   Partly Cloudy
3:53 AM 75.9 °F - 63.0 °F 64% 30.08 in 10.0 mi NE 11.5 mph - N/A   Partly Cloudy
4:53 AM 75.9 °F - 63.0 °F 64% 30.08 in 10.0 mi ENE 8.1 mph - N/A   Clear
5:53 AM 75.9 °F - 64.0 °F 67% 30.09 in 10.0 mi ENE 12.7 mph - N/A   Scattered Clouds
6:53 AM 75.9 °F - 64.0 °F 67% 30.10 in 10.0 mi ENE 9.2 mph - N/A   Scattered Clouds
7:53 AM 79.0 °F - 64.0 °F 60% 30.12 in 10.0 mi East 11.5 mph - N/A   Scattered Clouds
8:53 AM 80.1 °F 81.9 °F 64.9 °F 60% 30.13 in 10.0 mi NE 13.8 mph - 0.00 in   Scattered Clouds
9:53 AM 82.9 °F 84.4 °F 64.0 °F 53% 30.13 in 10.0 mi East 16.1 mph 19.6 mph N/A   Mostly Cloudy
10:53 AM 82.9 °F 84.4 °F 64.0 °F 53% 30.12 in 10.0 mi East 15.0 mph - N/A   Scattered Clouds
11:53 AM 84.9 °F 86.1 °F 64.0 °F 49% 30.09 in 10.0 mi East 17.3 mph 24.2 mph N/A   Scattered Clouds
12:53 PM 82.9 °F 84.6 °F 64.9 °F 54% 30.07 in 10.0 mi ENE 13.8 mph 25.3 mph N/A   Scattered Clouds
1:53 PM 82.9 °F 85.0 °F 66.0 °F 56% 30.05 in 10.0 mi NE 18.4 mph 21.9 mph N/A   Scattered Clouds
2:53 PM 82.9 °F 84.4 °F 64.0 °F 53% 30.04 in 10.0 mi NE 17.3 mph 24.2 mph N/A   Scattered Clouds
3:53 PM 81.0 °F 83.0 °F 66.0 °F 60% 30.04 in 10.0 mi ENE 16.1 mph 27.6 mph N/A   Scattered Clouds
4:53 PM 81.0 °F 82.7 °F 64.9 °F 58% 30.04 in 10.0 mi ENE 15.0 mph 21.9 mph N/A   Partly Cloudy
5:53 PM 78.1 °F - 66.0 °F 66% 30.05 in 10.0 mi ENE 12.7 mph - N/A   Partly Cloudy
6:53 PM 77.0 °F - 64.9 °F 66% 30.06 in 10.0 mi NE 10.4 mph 20.7 mph N/A   Partly Cloudy
7:53 PM 77.0 °F - 64.9 °F 66% 30.07 in 10.0 mi NE 13.8 mph - N/A   Partly Cloudy
8:53 PM 77.0 °F - 66.0 °F 69% 30.07 in 10.0 mi NE 13.8 mph - N/A   Partly Cloudy
9:53 PM 77.0 °F - 64.0 °F 64% 30.06 in 10.0 mi ENE 12.7 mph - N/A   Partly Cloudy
10:53 PM 77.0 °F - 64.0 °F 64% 30.06 in 10.0 mi ENE 8.1 mph - N/A   Scattered Clouds
11:53 PM 77.0 °F - 63.0 °F 62% 30.04 in 10.0 mi ENE 6.9 mph - N/A   Partly Cloudy